Location: De Har
(53.3413°N, 6.6858°E)
Time: 17:30:52
(UTC+00:00)

CRYOSAT 2 - Pass Details

Date: 22 April 2026
Orbit: 718 x 721 km, 92.0° (Epoch: 9 May)

Event Time Altitude Azimuth Distance (km) Brightness Sun altitude
Rises 02:57:47 0° 177° (S) 3,121 7.3 -11.2°
Reaches altitude 10° 03:00:04 10° 179° (S) 2,205 6.5 -10.9°
Maximum altitude 03:04:57 78° 266° (W) 744 4.3 -10.4°
Drops below altitude 10° 03:09:52 10° 353° (N) 2,220 7.3 -9.8°
Sets 03:12:10 0° 355° (N) 3,144 8.1 -9.5°
